When you browse on this site, cookies collect data to enhance your experience and personalize the content and advertising you see.
Visit our Privacy Policy to learn more. By continuing to use the site, you agree to this use of cookies and data.
  • en France
  • Liste des pays
  • À 7 jours
  • Température de l'eau
  • Carte satellitaire
  • Carte météo
  • Widgets météo
  • user-avatar
    Se connecter

    Météo par heure à Durrёs

    Ce jour, 17 Février, Dimanche

    Heure Température Précipitation Vent Pression Humidité
    00:00 +6°C° 0 mm 4 m/s 770 mmHg 56%
    01:00 +5°C° 0 mm 3 m/s 770 mmHg 55%
    02:00 +5°C° 0 mm 3 m/s 770 mmHg 54%
    03:00 +5°C° 0 mm 3 m/s 770 mmHg 53%
    04:00 +6°C° 0 mm 2 m/s 769 mmHg 52%
    05:00 +6°C° 0 mm 2 m/s 769 mmHg 52%
    06:00 +6°C° 0 mm 2 m/s 769 mmHg 51%
    07:00 +6°C° 0 mm 2 m/s 769 mmHg 50%
    08:00 +8°C° 0 mm 2 m/s 769 mmHg 45%
    09:00 +11°C° 0 mm 1 m/s 769 mmHg 39%
    10:00 +13°C° 0 mm 1 m/s 769 mmHg 34%
    11:00 +14°C° 0 mm 2 m/s 769 mmHg 34%
    12:00 +15°C° 0 mm 2 m/s 769 mmHg 34%
    13:00 +14°C° 0 mm 3 m/s 768 mmHg 34%
    14:00 +14°C° 0 mm 3 m/s 768 mmHg 39%
    15:00 +14°C° 0 mm 3 m/s 768 mmHg 45%
    16:00 +13°C° 0 mm 3 m/s 768 mmHg 50%
    17:00 +12°C° 0 mm 3 m/s 768 mmHg 56%
    18:00 +10°C° 0 mm 3 m/s 768 mmHg 62%
    19:00 +9°C° 0 mm 3 m/s 768 mmHg 68%
    20:00 +9°C° 0 mm 2 m/s 768 mmHg 68%
    21:00 +9°C° 0 mm 2 m/s 768 mmHg 68%
    22:00 +9°C° 0 mm 1 m/s 768 mmHg 68%
    23:00 +9°C° 0 mm 1 m/s 768 mmHg 68%

    Demain, 18 Février, Lundi

    Heure Température Précipitation Vent Pression Humidité
    00:00 +9°C° 0 mm 1 m/s 768 mmHg 68%
    01:00 +9°C° 0 mm 1 m/s 768 mmHg 67%
    02:00 +9°C° 0 mm 1 m/s 768 mmHg 67%
    03:00 +8°C° 0 mm 1 m/s 768 mmHg 66%
    04:00 +8°C° 0 mm 1 m/s 767 mmHg 66%
    05:00 +8°C° 0 mm 1 m/s 767 mmHg 65%
    06:00 +8°C° 0 mm 1 m/s 767 mmHg 64%
    07:00 +8°C° 0 mm 1 m/s 767 mmHg 63%
    08:00 +10°C° 0 mm 1 m/s 767 mmHg 58%
    09:00 +12°C° 0 mm 1 m/s 767 mmHg 52%
    10:00 +14°C° 0 mm 1 m/s 767 mmHg 47%
    11:00 +15°C° 0 mm 1 m/s 767 mmHg 46%
    12:00 +15°C° 0 mm 1 m/s 767 mmHg 46%
    13:00 +16°C° 0 mm 1 m/s 766 mmHg 45%
    14:00 +16°C° 0 mm 1 m/s 766 mmHg 48%
    15:00 +15°C° 0 mm 1 m/s 766 mmHg 51%
    16:00 +15°C° 0 mm 1 m/s 766 mmHg 54%
    17:00 +13°C° 0 mm 1 m/s 766 mmHg 59%
    18:00 +12°C° 0 mm 1 m/s 766 mmHg 65%
    19:00 +11°C° 0 mm 1 m/s 767 mmHg 71%
    20:00 +10°C° 0 mm 1 m/s 767 mmHg 71%
    21:00 +10°C° 0 mm 1 m/s 767 mmHg 72%
    22:00 +9°C° 0 mm 0 m/s 767 mmHg 72%
    23:00 +10°C° 0 mm 1 m/s 767 mmHg 72%

    Après-demain, 19 Février, Mardi

    Heure Température Précipitation Vent Pression Humidité
    00:00 +9°C° 0 mm 1 m/s 767 mmHg 73%
    01:00 +9°C° 0 mm 1 m/s 767 mmHg 73%
    02:00 +9°C° 0 mm 1 m/s 767 mmHg 73%
    03:00 +9°C° 0 mm 1 m/s 767 mmHg 73%
    04:00 +8°C° 0 mm 1 m/s 767 mmHg 73%
    05:00 +7°C° 0 mm 2 m/s 767 mmHg 72%
    06:00 +7°C° 0 mm 2 m/s 767 mmHg 71%
    07:00 +7°C° 0 mm 2 m/s 767 mmHg 70%
    08:00 +9°C° 0 mm 2 m/s 767 mmHg 64%
    09:00 +12°C° 0 mm 2 m/s 767 mmHg 57%
    10:00 +14°C° 0 mm 2 m/s 767 mmHg 51%
    11:00 +15°C° 0 mm 2 m/s 767 mmHg 50%
    12:00 +15°C° 0 mm 1 m/s 767 mmHg 48%
    13:00 +16°C° 0 mm 1 m/s 766 mmHg 47%
    14:00 +15°C° 0 mm 1 m/s 766 mmHg 51%
    15:00 +15°C° 0 mm 1 m/s 766 mmHg 54%
    16:00 +15°C° 0 mm 1 m/s 766 mmHg 58%
    17:00 +13°C° 0 mm 1 m/s 766 mmHg 65%
    18:00 +11°C° 0 mm 0 m/s 766 mmHg 73%
    19:00 +10°C° 0 mm 0 m/s 767 mmHg 80%
    20:00 +9°C° 0 mm 0 m/s 767 mmHg 81%
    21:00 +9°C° 0 mm 0 m/s 767 mmHg 81%
    22:00 +10°C° 0 mm 1 m/s 767 mmHg 82%
    23:00 +10°C° 0 mm 1 m/s 767 mmHg 82%

    20 Février, Mercredi

    Heure Température Précipitation Vent Pression Humidité
    00:00 +9°C° 0 mm 1 m/s 767 mmHg 83%
    01:00 +8°C° 0 mm 2 m/s 767 mmHg 83%
    02:00 +8°C° 0 mm 2 m/s 767 mmHg 82%
    03:00 +7°C° 0 mm 2 m/s 767 mmHg 82%
    04:00 +7°C° 0 mm 2 m/s 767 mmHg 81%
    05:00 +7°C° 0 mm 2 m/s 767 mmHg 79%
    06:00 +7°C° 0 mm 2 m/s 767 mmHg 77%
    07:00 +7°C° 0 mm 2 m/s 767 mmHg 75%
    08:00 +9°C° 0 mm 2 m/s 767 mmHg 69%
    09:00 +12°C° 0 mm 2 m/s 767 mmHg 62%
    10:00 +14°C° 0 mm 1 m/s 768 mmHg 55%
    11:00 +14°C° 0 mm 1 m/s 767 mmHg 55%
    12:00 +15°C° 0 mm 1 m/s 767 mmHg 54%
    13:00 +15°C° 0 mm 1 m/s 767 mmHg 54%
    14:00 +15°C° 0 mm 2 m/s 767 mmHg 58%
    15:00 +15°C° 0 mm 2 m/s 767 mmHg 61%
    16:00 +13°C° 0 mm 3 m/s 767 mmHg 65%
    17:00 +12°C° 0 mm 3 m/s 767 mmHg 73%
    18:00 +11°C° 0 mm 3 m/s 767 mmHg 81%
    19:00 +10°C° 0 mm 3 m/s 768 mmHg 88%
    20:00 +9°C° 0 mm 3 m/s 768 mmHg 88%
    21:00 +9°C° 0 mm 3 m/s 768 mmHg 88%
    22:00 +9°C° 0 mm 3 m/s 768 mmHg 88%
    23:00 +9°C° 0 mm 3 m/s 768 mmHg 86%

    21 Février, Jeudi

    Heure Température Précipitation Vent Pression Humidité
    00:00 +9°C° 0 mm 2 m/s 768 mmHg 85%
    01:00 +8°C° 0 mm 2 m/s 768 mmHg 83%
    02:00 +8°C° 0 mm 2 m/s 768 mmHg 81%
    03:00 +8°C° 0 mm 2 m/s 768 mmHg 78%
    04:00 +8°C° 0 mm 2 m/s 768 mmHg 76%
    05:00 +8°C° 0 mm 2 m/s 768 mmHg 74%
    06:00 +8°C° 0 mm 2 m/s 768 mmHg 71%
    07:00 +8°C° 0 mm 2 m/s 768 mmHg 69%
    08:00 +10°C° 0 mm 2 m/s 768 mmHg 62%
    09:00 +13°C° 0 mm 2 m/s 768 mmHg 55%
    10:00 +15°C° 0 mm 1 m/s 768 mmHg 48%
    11:00 +16°C° 0 mm 2 m/s 768 mmHg 47%
    12:00 +16°C° 0 mm 3 m/s 768 mmHg 46%
    13:00 +17°C° 0 mm 4 m/s 767 mmHg 45%
    14:00 +17°C° 0 mm 4 m/s 767 mmHg 48%
    15:00 +15°C° 0 mm 5 m/s 767 mmHg 52%
    16:00 +14°C° 0 mm 5 m/s 767 mmHg 56%
    17:00 +13°C° 0 mm 5 m/s 767 mmHg 64%
    18:00 +12°C° 0 mm 5 m/s 767 mmHg 72%
    19:00 +10°C° 0 mm 4 m/s 767 mmHg 80%
    20:00 +10°C° 0 mm 4 m/s 768 mmHg 81%
    21:00 +10°C° 0 mm 3 m/s 768 mmHg 81%
    22:00 +10°C° 0 mm 3 m/s 768 mmHg 82%
    23:00 +9°C° 0 mm 3 m/s 768 mmHg 82%

    22 Février, Vendredi

    Heure Température Précipitation Vent Pression Humidité
    00:00 +9°C° 0 mm 2 m/s 768 mmHg 82%
    01:00 +9°C° 0 mm 2 m/s 768 mmHg 82%
    02:00 +9°C° 0 mm 2 m/s 767 mmHg 82%
    03:00 +9°C° 0 mm 1 m/s 767 mmHg 82%
    04:00 +9°C° 0 mm 1 m/s 766 mmHg 81%
    05:00 +9°C° 0 mm 1 m/s 766 mmHg 80%
    06:00 +9°C° 0 mm 1 m/s 766 mmHg 79%
    07:00 +9°C° 0 mm 1 m/s 766 mmHg 78%
    08:00 +11°C° 0 mm 1 m/s 766 mmHg 73%
    09:00 +12°C° 0 mm 1 m/s 766 mmHg 68%
    10:00 +14°C° 0 mm 1 m/s 765 mmHg 63%
    11:00 +14°C° 0 mm 1 m/s 765 mmHg 61%
    12:00 +15°C° 0 mm 1 m/s 764 mmHg 59%
    13:00 +16°C° 0 mm 1 m/s 763 mmHg 57%
    14:00 +15°C° 0 mm 2 m/s 763 mmHg 60%
    15:00 +14°C° 0 mm 3 m/s 762 mmHg 62%
    16:00 +14°C° 0 mm 3 m/s 762 mmHg 64%
    17:00 +13°C° 0 mm 4 m/s 762 mmHg 70%
    18:00 +12°C° 0 mm 4 m/s 762 mmHg 75%
    19:00 +11°C° 0 mm 4 m/s 762 mmHg 80%
    20:00 +11°C° 0.2 mm 3 m/s 762 mmHg 81%
    21:00 +10°C° 0.2 mm 3 m/s 762 mmHg 82%
    22:00 +10°C° 0.2 mm 2 m/s 761 mmHg 83%
    23:00 +10°C° 0.4 mm 2 m/s 761 mmHg 83%
    Voir plus